Regional Weather Roundup
Issued by NWS

Home | Current Version | Previous Version | Graphics & Text | Print | Product List | Glossary On
Versions: 1 2 3 4 5 6 7 8 9 10 11 12 13 14 15 16 17 18 19 20 21 22 23 24 25 26 27 28 29 30 31 32 33 34 35 36 37 38 39 40 41 42 43 44 45 46 47 48 49 50
000
ASUS43 KLOT 200000
RWRIL

ILLINOIS REGIONAL WEATHER ROUNDUP
NATIONAL WEATHER SERVICE CHICAGO/ROMEOVILLE IL
600 PM CST FRI DEC 19 2014

NOTE: "FAIR" INDICATES FEW OR NO CLOUDS BELOW 12,000 FEET WITH NO
SIGNIFICANT WEATHER AND/OR OBSTRUCTIONS TO VISIBILITY.

* THESE STATIONS ARE NOT UNDER NWS QUALITY CONTROL. THEY ALSO MAY NOT
  REPORT WEATHER SUCH AS PRECIPITATION OR FOG.

ILZ001-002-007-009-015-016-024-200100-
NORTHWEST ILLINOIS

CITY           SKY/WX    TMP DP  RH WIND       PRES   REMARKS
MOLINE         CLOUDY    25  19  78 E7        30.27S WCI  17
6HR MIN TEMP:  25; 6HR MAX TEMP:  32;

STERLING*      CLOUDY    28  21  74 NE3       30.29F
$$

ILZ003-004-008-010-011-017-018-200100-
NORTH CENTRAL ILLINOIS

CITY           SKY/WX    TMP DP  RH WIND       PRES   REMARKS
ROCKFORD       CLOUDY    28  21  75 NE3       30.31F
6HR MIN TEMP:  27; 6HR MAX TEMP:  28; 6HR PCP: TRACE;

$$

ILZ005-006-012>014-019>023-200100-
NORTHEAST ILLINOIS

CITY           SKY/WX    TMP DP  RH WIND       PRES   REMARKS
CHICAGO-OHARE  CLOUDY    31  22  69 N7        30.28F WCI  24
6HR MIN TEMP:  30; 6HR MAX TEMP:  32;

CHICAGO-MIDWAY CLOUDY    34  23  64 CALM      30.29F
6HR MIN TEMP:  33; 6HR MAX TEMP:  34;

AURORA         CLOUDY    31  23  72 N6        30.29F WCI  25
6HR MIN TEMP:  31; 6HR MAX TEMP:  33;

WAUKEGAN       CLOUDY    28  21  75 CALM      30.30F
6HR MIN TEMP:  28; 6HR MAX TEMP:  30;

DUPAGE AIRPORT CLOUDY    30  23  75 N8        30.28F WCI  22
6HR MIN TEMP:  30; 6HR MAX TEMP:  32;

WHEELING       CLOUDY    30  21  69 NW6       30.31F WCI  24
6HR MIN TEMP:  29; 6HR MAX TEMP:  31;

NORTHERLY ISL    N/A     32  22  67 CALM        N/A
$$

LMZ740>746-200100-
SOUTHERN LAKE MICHIGAN

STATION/POSITION SKY/WX   TEMP    WIND        PRES    VSBY  WAVE
                          AIR SEA DIR/SP/G                  HT/PER
                          (F)     (DEG/KT/KT) (MB)    (MI)  (FT/S)
WAUKEGAN HARBOR            29      CALM  /  4   N/A
HARRISON CRIB              32     230/  6/ 11   N/A
BURNHAM HARBOR             32      CALM  /  7   N/A
CALUMET HARBOR             32     110/  2/  3 1024.7F
$$

ILZ025>027-034>036-040-047-049-050-058-095>099-200100-
WEST-CENTRAL ILLINOIS

CITY           SKY/WX    TMP DP  RH WIND       PRES   REMARKS
QUINCY         CLOUDY    32  26  78 E7        30.25F WCI  26
$$

ILZ028>032-037-038-041>044-048-051>054-059>061-200100-
CENTRAL ILLINOIS

CITY           SKY/WX    TMP DP  RH WIND       PRES   REMARKS
DECATUR        MOCLDY    30  24  78 E5        30.29S WCI  25
PEORIA         MOCLDY    29  20  69 NE3       30.28F
6HR MIN TEMP:  29; 6HR MAX TEMP:  36;

SPRINGFIELD    CLOUDY    31  23  72 NE5       30.29S WCI  26
6HR MIN TEMP:  30; 6HR MAX TEMP:  37;

TAYLORVILLE    NOT AVBL
$$

ILZ033-039-045-046-055>057-062-063-200100-
EAST-CENTRAL ILLINOIS

CITY           SKY/WX    TMP DP  RH WIND       PRES   REMARKS
CHAMPAIGN      CLOUDY    29  22  75 CALM      30.29S
MATTOON        CLOUDY    30  24  78 NE5       30.28S WCI  25
$$

ILZ079-100>102-200100-
SOUTHWEST ILLINOIS

CITY           SKY/WX    TMP DP  RH WIND       PRES   REMARKS
CAHOKIA*       CLOUDY    36  29  75 E7        30.28S WCI  30
$$

ILZ064>066-069>071-074>076-080>082-084>086-088>090-092>094-200100-
SOUTH-CENTRAL ILLINOIS

CITY           SKY/WX    TMP DP  RH WIND       PRES   REMARKS
CARBONDALE     CLOUDY    36  27  69 NE6       30.27F WCI  31
6HR MIN TEMP:  36; 6HR MAX TEMP:  38;

MARION         CLOUDY    36  28  75 NE7       30.28F WCI  30
MT. VERNON     CLOUDY    36  25  64 CALM      30.29S
$$

ILZ067-068-072-073-078-083-087-091-200100-
SOUTHEAST ILLINOIS

CITY           SKY/WX    TMP DP  RH WIND       PRES   REMARKS
LAWRENCEVILLE  MOCLDY    32  25  75 CALM      30.30R
$$

ABBREVIATIONS USED IN REMARKS
   TC - TEMPERATURE IN CELSIUS
  WCI - WIND CHILL INDEX
   HX - HEAT INDEX
  VSB - VISIBILITY
$$




USA.gov is the U.S. government's official web portal to all federal, state and local government web resources and services.